Simultaneous Nadir Overpasses (SNOs) Predictions

Prediction of SNOs between AQUA and METOP-B Satellite Orbit:

Table of predicted SNOs for the next 14.0 days since TLE Epoch: 2/26/2016
Index Date (AQUA) Time (AQUA) Lat,Lon (AQUA) SZA (AQUA ) Date (METOP-B) Time (METOP-B) Lat,Lon (METOP-B) SZA (METOP-B ) Distance(km) Time Diff (sec)
1 02/29/2016 14:10:37 -73.24, 142.78 99.06 02/29/2016 14:09:30 -73.22, 140.24 98.94 81.54 67
2 02/29/2016 15:00:17 73.88, -50.96 81.63 02/29/2016 14:59:57 73.87, -50.95 81.62 1.72 20
3 02/29/2016 15:49:44 -73.96, 116.51 98.30 02/29/2016 15:50:37 -73.94, 116.56 98.33 2.28 53
4 03/03/2016 09:44:57 -73.39,-151.10 99.97 03/03/2016 09:43:48 -73.33,-153.12 99.93 64.87 69
5 03/03/2016 10:34:34 73.88, 15.48 80.55 03/03/2016 10:34:17 73.87, 15.46 80.54 1.46 17
6 03/03/2016 11:24:01 -73.95,-177.04 99.39 03/03/2016 11:24:57 -73.95,-177.02 99.40 0.83 56
7 03/06/2016 05:19:15 -73.50, -84.90 100.94 03/06/2016 05:18:05 -73.43, -86.49 100.93 50.85 70
8 03/06/2016 06:08:50 73.90, 81.88 79.47 03/06/2016 06:08:36 73.87, 81.86 79.45 3.35 14
9 03/06/2016 06:58:17 -73.96,-110.63 100.47 03/06/2016 06:59:16 -73.95,-110.61 100.50 1.67 59
10 03/09/2016 00:53:34 -73.64, -18.75 101.90 03/09/2016 00:52:22 -73.58, -19.75 101.91 31.98 72
11 03/09/2016 01:43:06 73.88, 148.36 78.35 03/09/2016 01:42:56 73.86, 148.25 78.34 3.75 10
12 03/09/2016 02:32:33 -73.94, -44.14 101.60 03/09/2016 02:33:36 -73.95, -44.21 101.60 2.17 63




NCC Satellite Simultaneous Nadir Overpasses (SNOs) Prediction Service
